[[{"header":{"parameterUnit":"m.s-1","parameterCategory":1,"la1":30.2991,"la2":30.254,"lo1":-89.0895,"lo2":-89.0444,"dy":0.0017,"dx":0.0017,"nx":28,"ny":28,"refTime":"2023-11-23T03:00:00:Z","depth":0,"parameterNumber":2,"parameterNumberName":"U-component_of_WINDS"},"data":[0,0,0,0,0,0,0,0,0,0,0,0,0,0,0,0,0,0,0,0,0,0,0,0,0,0,0,0,0,0,0,0,0,0,0,0,0,0,0,0,0,0,0,0,0,0,0,0,0,0,0,0,0,0,0,0,0,0,-1.5992,-1.5992,0,-1.5942,-1.5942,-1.5941,-1.5856,-1.5854,-1.5852,-1.5851,-1.5802,-1.5802,-1.5802,0,0,0,0,0,0,0,0,0,0,0,0,0,-1.6016,-1.6016,-1.5992,-1.5992,-1.5991,-1.5943,-1.5942,-1.5941,-1.5856,-1.5854,-1.5852,-1.585,-1.5802,-1.5802,-1.5802,0,0,0,0,0,0,0,0,0,0,0,0,0,-1.599,-1.6016,-1.5993,-1.5943,-1.5938,-1.5943,-1.5942,-1.5941,-1.5856,-1.5854,-1.5851,-1.5849,-1.5802,-1.5802,-1.5802,-1.5852,0,0,-1.5803,-1.5803,0,0,0,0,0,0,0,0,-1.5992,-1.5989,-1.5951,-1.5946,-1.594,-1.5903,-1.5932,-1.5911,-1.5857,-1.5887,-1.5851,-1.5848,-1.5837,-1.5835,-1.5831,-1.585,-1.5848,-1.5803,-1.5803,-1.5803,-1.5803,0,0,0,0,0,0,0,-1.5993,-1.5991,-1.5973,-1.595,-1.5944,-1.5923,-1.5917,-1.5928,-1.5877,-1.5884,-1.5878,-1.5873,-1.5834,-1.5831,-1.5829,-1.5847,-1.5803,-1.5803,-1.5804,-1.5804,-1.5907,-1.5909,0,0,0,0,0,0,-1.6002,-1.5993,-1.5974,-1.5971,-1.596,-1.5925,-1.5918,-1.5917,-1.5876,-1.5868,-1.5875,-1.5869,-1.5831,-1.5829,-1.5827,-1.5884,-1.5803,-1.5804,-1.5804,-1.5904,-1.5907,-1.591,0,0,0,0,0,0,-1.6003,-1.6001,-1.5976,-1.598,-1.5975,-1.5927,-1.5927,-1.5918,-1.5914,-1.5869,-1.586,-1.5881,-1.5829,-1.5826,-1.5847,-1.5881,-1.5804,-1.5804,-1.5901,-1.5905,-1.5908,-1.5998,0,0,0,0,0,0,-1.6004,-1.6002,-1.602,-1.5981,-1.5976,-1.5997,-1.5929,-1.5918,-1.5914,-1.5906,-1.5872,-1.5864,-1.5827,-1.5847,-1.5847,-1.588,-1.5804,-1.5898,-1.5903,-1.5907,-1.5991,-1.6004,-1.6015,0,0,0,0,0,-1.6005,-1.6048,-1.6022,-1.602,-1.5997,-1.5999,-1.5996,-1.5952,-1.5917,-1.5936,-1.5907,-1.5865,-1.5877,-1.585,-1.5849,-1.5883,-1.5895,-1.5901,-1.5907,-1.5986,-1.6002,-1.6014,0,0,0,0,0,0,-1.6093,-1.6042,-1.6012,-1.6043,-1.6026,-1.5984,-1.6006,-1.5969,-1.5962,-1.5954,-1.5901,-1.5894,-1.5922,-1.5904,-1.5874,-1.5929,-1.588,-1.5886,-1.594,-1.5954,-1.5966,-1.597,-1.5805,0,0,0,0,0,-1.6115,-1.612,-1.6076,-1.6107,-1.61,-1.6055,-1.6054,-1.6021,-1.6002,-1.5994,-1.5967,-1.595,-1.595,-1.5951,-1.5948,-1.5988,-1.598,-1.6011,-1.6023,-1.6032,-1.6039,-1.6059,-1.6073,-1.5929,-1.5929,-1.5929,0,0,-1.6163,-1.6135,-1.6142,-1.6124,-1.6107,-1.6114,-1.6049,-1.6059,-1.6064,-1.5996,-1.6013,-1.5993,-1.5971,-1.6001,-1.6014,-1.5988,-1.6076,-1.604,-1.6048,-1.6049,-1.6067,-1.608,-1.6093,-1.5933,-1.5932,-1.5931,0,0,-1.6252,-1.6232,-1.6256,-1.624,-1.6215,-1.6185,-1.6191,-1.6155,-1.6138,-1.6155,-1.6104,-1.611,-1.611,-1.6096,-1.609,-1.6175,-1.6137,-1.6176,-1.6237,-1.6258,-1.6269,-1.6279,-1.6311,-1.6322,-1.6182,-1.6182,-1.6182,0,-1.6315,-1.6323,-1.6274,-1.6287,-1.6281,-1.6219,-1.6244,-1.6231,-1.6207,-1.6205,-1.6175,-1.6175,-1.6156,-1.6183,-1.6204,-1.62,-1.6206,-1.618,-1.6271,-1.6281,-1.6289,-1.6319,-1.6331,-1.6187,-1.6186,-1.6186,-1.6185,0,-1.6401,-1.6407,-1.643,-1.6408,-1.6404,-1.6424,-1.6378,-1.6381,-1.6349,-1.6322,-1.6341,-1.6315,-1.6306,-1.631,-1.6279,-1.6333,-1.6318,-1.6281,-1.623,-1.6309,-1.6336,-1.6346,-1.6194,-1.6192,-1.6191,-1.6189,0,0,-1.6545,-1.6495,-1.6504,-1.6494,-1.6461,-1.6466,-1.6482,-1.6473,-1.6477,-1.6462,-1.6476,-1.6478,-1.6444,-1.6436,-1.6403,-1.6421,-1.6492,-1.6382,-1.6381,-1.6404,-1.6551,-1.658,-1.6594,-1.6466,-1.6468,-1.6469,-1.6553,0,-1.6628,-1.6654,-1.661,-1.6646,-1.6652,-1.6593,-1.6608,-1.659,-1.6566,-1.6568,-1.654,-1.6543,-1.6497,-1.6492,-1.6508,-1.648,-1.6521,-1.6473,-1.6479,-1.648,-1.6487,-1.6607,-1.6638,-1.6718,-1.6563,-1.6565,-1.6566,0,-1.673,-1.672,-1.6756,-1.6722,-1.6723,-1.6737,-1.6725,-1.6728,-1.6707,-1.6688,-1.668,-1.664,-1.6655,-1.6606,-1.6626,-1.6595,-1.6594,-1.6581,-1.6583,-1.6583,-1.6529,-1.6611,-1.6743,-1.6756,-1.6582,-1.6581,-1.658,0,-1.6832,-1.6828,-1.6849,-1.6842,-1.6802,-1.6814,-1.6798,-1.6774,-1.6772,-1.6762,-1.676,-1.6753,-1.6749,-1.6745,-1.6705,-1.6672,-1.6731,-1.6677,-1.6716,-1.6717,-1.6732,-1.6732,-1.6866,-1.673,-1.673,-1.673,-1.673,0,-1.6931,-1.6956,-1.6895,-1.6908,-1.6934,-1.6885,-1.6912,-1.6891,-1.6871,-1.6879,-1.6828,-1.6837,-1.6783,-1.6787,-1.6756,-1.6779,-1.6777,-1.6763,-1.6754,-1.6768,-1.677,-1.6768,-1.6761,-1.6733,-1.6732,-1.6732,-1.6731,0,-1.705,-1.701,-1.703,-1.6991,-1.6982,-1.7003,-1.697,-1.6981,-1.6953,-1.6965,-1.6965,-1.6921,-1.6923,-1.6882,-1.6876,-1.6856,-1.6892,-1.6873,-1.6899,-1.6894,-1.6935,-1.6933,-1.7074,-1.7091,-1.6944,-1.6945,-1.6946,0,-1.7116,-1.7134,-1.7097,-1.7099,-1.7085,-1.7089,-1.7086,-1.7038,-1.7038,-1.7015,-1.703,-1.7027,-1.7023,-1.7029,-1.6997,-1.6993,-1.6974,-1.7024,-1.6973,-1.6986,-1.6976,-1.6976,-1.6978,-1.7035,-1.7037,-1.7038,-1.704,0,-1.7238,-1.7218,-1.7215,-1.7206,-1.7204,-1.7195,-1.7183,-1.7188,-1.7135,-1.7137,-1.7138,-1.7135,-1.7129,-1.7128,-1.7117,-1.7101,-1.7063,-1.7056,-1.7065,-1.7079,-1.7094,-1.7088,-1.693,-1.7053,-1.7052,-1.7051,-1.705,-1.7049,-1.7333,-1.7347,-1.7323,-1.7322,-1.7308,-1.7297,-1.7306,-1.7279,-1.7279,-1.727,-1.7242,-1.7248,-1.7227,-1.7209,-1.7197,-1.7202,-1.7177,-1.719,-1.7193,-1.7198,-1.7206,-1.7093,-1.72,-1.7199,-1.7199,-1.7198,-1.7198,0,-1.7454,-1.7435,-1.7435,-1.7419,-1.7419,-1.7381,-1.7366,-1.7369,-1.7374,-1.7358,-1.7355,-1.7357,-1.7355,-1.7323,-1.7318,-1.7329,-1.7311,-1.7329,-1.7328,-1.7326,-1.7227,-1.7221,-1.7344,-1.7344,-1.7344,-1.7344,-1.7344,-1.7344,-1.7516,-1.7537,-1.7514,-1.7527,-1.7509,-1.7514,-1.7509,-1.7499,-1.7486,-1.749,-1.7488,-1.7467,-1.7445,-1.7438,-1.7436,-1.7426,-1.7428,-1.7452,-1.7437,-1.7346,-1.7332,-1.7319,-1.7312,-1.7453,-1.7453,-1.7535,-1.7536,-1.7536]},{"header":{"parameterUnit":"m.s-1","parameterCategory":1,"la1":30.2991,"la2":30.254,"lo1":-89.0895,"lo2":-89.0444,"dy":0.0017,"dx":0.0017,"nx":28,"ny":28,"refTime":"2023-11-23T03:00:00:Z","depth":0,"parameterNumber":3,"parameterNumberName":"V-component_of_WINDS"},"data":[0,0,0,0,0,0,0,0,0,0,0,0,0,0,0,0,0,0,0,0,0,0,0,0,0,0,0,0,0,0,0,0,0,0,0,0,0,0,0,0,0,0,0,0,0,0,0,0,0,0,0,0,0,0,0,0,0,0,-0.782,-0.782,0,-0.7852,-0.7853,-0.7853,-0.7857,-0.7857,-0.7856,-0.7856,-0.789,-0.7891,-0.7892,0,0,0,0,0,0,0,0,0,0,0,0,0,-0.7762,-0.7763,-0.782,-0.7821,-0.7821,-0.7852,-0.7853,-0.7853,-0.7857,-0.7857,-0.7856,-0.7856,-0.7889,-0.7891,-0.7892,0,0,0,0,0,0,0,0,0,0,0,0,0,-0.779,-0.7763,-0.782,-0.7827,-0.7827,-0.7852,-0.7853,-0.7853,-0.7857,-0.7856,-0.7856,-0.7856,-0.7889,-0.789,-0.7892,-0.7913,0,0,-0.7898,-0.7899,0,0,0,0,0,0,0,0,-0.7789,-0.7792,-0.7825,-0.7826,-0.7827,-0.785,-0.7845,-0.7873,-0.7857,-0.7846,-0.7856,-0.7855,-0.7877,-0.788,-0.7887,-0.7915,-0.7916,-0.7898,-0.7899,-0.79,-0.79,0,0,0,0,0,0,0,-0.7787,-0.7791,-0.7833,-0.7826,-0.7827,-0.7828,-0.7831,-0.785,-0.7864,-0.7847,-0.7847,-0.7851,-0.7877,-0.7885,-0.7888,-0.7917,-0.7898,-0.7899,-0.7901,-0.7901,-0.7963,-0.7964,0,0,0,0,0,0,-0.7783,-0.7789,-0.7832,-0.7834,-0.7806,-0.7829,-0.7833,-0.7843,-0.7863,-0.7866,-0.7851,-0.7851,-0.7882,-0.7885,-0.7889,-0.7915,-0.79,-0.7901,-0.7902,-0.7963,-0.7963,-0.7964,0,0,0,0,0,0,-0.7782,-0.7787,-0.7831,-0.7812,-0.7817,-0.7831,-0.7842,-0.7844,-0.7852,-0.7867,-0.7869,-0.7857,-0.7882,-0.7886,-0.7907,-0.7916,-0.7902,-0.7904,-0.7962,-0.7963,-0.7964,-0.7967,0,0,0,0,0,0,-0.778,-0.7787,-0.7795,-0.7812,-0.7818,-0.7848,-0.7843,-0.7845,-0.7855,-0.7855,-0.7873,-0.7875,-0.7882,-0.7904,-0.7909,-0.7918,-0.7905,-0.7961,-0.7962,-0.7963,-0.7966,-0.7968,-0.7969,0,0,0,0,0,-0.7778,-0.7794,-0.7795,-0.78,-0.7828,-0.7849,-0.7852,-0.786,-0.7855,-0.7864,-0.7873,-0.7874,-0.7914,-0.7906,-0.7911,-0.7922,-0.7961,-0.7962,-0.7963,-0.7965,-0.7967,-0.7969,0,0,0,0,0,0,-0.7778,-0.7797,-0.7798,-0.782,-0.7833,-0.7849,-0.786,-0.7862,-0.7876,-0.7876,-0.7884,-0.7888,-0.7909,-0.7917,-0.7908,-0.7943,-0.7937,-0.7939,-0.7937,-0.7939,-0.794,-0.7938,-0.7907,0,0,0,0,0,-0.7781,-0.7795,-0.7811,-0.7829,-0.7835,-0.7846,-0.7855,-0.786,-0.7874,-0.7879,-0.789,-0.7904,-0.7919,-0.7929,-0.7944,-0.7967,-0.7971,-0.7976,-0.7978,-0.7979,-0.7981,-0.7994,-0.7997,-0.7968,-0.7968,-0.7968,0,0,-0.7786,-0.7798,-0.7807,-0.7829,-0.7839,-0.7855,-0.7851,-0.7867,-0.7879,-0.7882,-0.7902,-0.7911,-0.7926,-0.7948,-0.7958,-0.7956,-0.799,-0.7981,-0.7982,-0.7983,-0.7996,-0.7999,-0.8001,-0.7969,-0.7969,-0.7969,0,0,-0.7804,-0.7814,-0.783,-0.7841,-0.7857,-0.7864,-0.7868,-0.7884,-0.789,-0.791,-0.7913,-0.7927,-0.7953,-0.7964,-0.7973,-0.7995,-0.7997,-0.7999,-0.8008,-0.8021,-0.8023,-0.8025,-0.8033,-0.8036,-0.8001,-0.8001,-0.8001,0,-0.7809,-0.7832,-0.7838,-0.7855,-0.7864,-0.7867,-0.7884,-0.7894,-0.7914,-0.7921,-0.7917,-0.7951,-0.7961,-0.7986,-0.7991,-0.7998,-0.8003,-0.7998,-0.8022,-0.8024,-0.8026,-0.8034,-0.8037,-0.8002,-0.8002,-0.8002,-0.8002,0,-0.7837,-0.7853,-0.7864,-0.7883,-0.7894,-0.791,-0.792,-0.793,-0.7933,-0.7941,-0.7962,-0.7975,-0.7993,-0.7999,-0.8002,-0.8024,-0.8022,-0.802,-0.8015,-0.8029,-0.8037,-0.804,-0.8002,-0.8002,-0.8002,-0.8002,0,0,-0.7856,-0.7879,-0.7883,-0.7892,-0.7909,-0.7922,-0.7938,-0.7955,-0.7964,-0.7977,-0.7992,-0.8014,-0.8012,-0.8023,-0.8027,-0.8038,-0.8055,-0.8035,-0.8036,-0.8039,-0.808,-0.8082,-0.8085,-0.8056,-0.8056,-0.8057,-0.8079,0,-0.7877,-0.7906,-0.7913,-0.7938,-0.7953,-0.7956,-0.797,-0.7982,-0.799,-0.8004,-0.8012,-0.8028,-0.8024,-0.803,-0.8041,-0.8051,-0.8063,-0.8049,-0.807,-0.807,-0.8067,-0.8089,-0.8091,-0.8112,-0.8082,-0.8083,-0.8083,0,-0.7905,-0.7919,-0.7946,-0.7961,-0.7968,-0.798,-0.7997,-0.801,-0.8024,-0.8028,-0.804,-0.8043,-0.8061,-0.8053,-0.8078,-0.8068,-0.8076,-0.8082,-0.8083,-0.8086,-0.8078,-0.8094,-0.8119,-0.8122,-0.8088,-0.8087,-0.8087,0,-0.7917,-0.7943,-0.7962,-0.7969,-0.7988,-0.7997,-0.8005,-0.8018,-0.8028,-0.8042,-0.8049,-0.8065,-0.8074,-0.8086,-0.8094,-0.8088,-0.8118,-0.8112,-0.8123,-0.8123,-0.813,-0.813,-0.8158,-0.8134,-0.8134,-0.8134,-0.8134,0,-0.794,-0.7956,-0.7968,-0.798,-0.7999,-0.8006,-0.8024,-0.8032,-0.8044,-0.8058,-0.8061,-0.8074,-0.8083,-0.8097,-0.8103,-0.8123,-0.8126,-0.8131,-0.8133,-0.8131,-0.8131,-0.8138,-0.8137,-0.8135,-0.8135,-0.8135,-0.8134,0,-0.7957,-0.7966,-0.7987,-0.8003,-0.8007,-0.802,-0.8033,-0.8045,-0.8052,-0.807,-0.8074,-0.8086,-0.8103,-0.8111,-0.8132,-0.8137,-0.8159,-0.8159,-0.8154,-0.8155,-0.8166,-0.8166,-0.8201,-0.8206,-0.8178,-0.8178,-0.8178,0,-0.7972,-0.7984,-0.8001,-0.8011,-0.8019,-0.8034,-0.8044,-0.8051,-0.8062,-0.8078,-0.8088,-0.8105,-0.8119,-0.8146,-0.8157,-0.8173,-0.8174,-0.8185,-0.8177,-0.8175,-0.8175,-0.8175,-0.8176,-0.8187,-0.8187,-0.8188,-0.8188,0,-0.7997,-0.8,-0.8014,-0.803,-0.8042,-0.8055,-0.8068,-0.8075,-0.8084,-0.8096,-0.8113,-0.8124,-0.8145,-0.8162,-0.8179,-0.8188,-0.819,-0.819,-0.8194,-0.8193,-0.819,-0.8193,-0.8159,-0.819,-0.8189,-0.8189,-0.8189,-0.8189,-0.8013,-0.8025,-0.8039,-0.8055,-0.8065,-0.8076,-0.8088,-0.8097,-0.8111,-0.8129,-0.8133,-0.8151,-0.8165,-0.8187,-0.8196,-0.8211,-0.8209,-0.8214,-0.8215,-0.8217,-0.8218,-0.8187,-0.8214,-0.8214,-0.8214,-0.8214,-0.8214,0,-0.8039,-0.8048,-0.8062,-0.808,-0.8093,-0.8092,-0.8106,-0.8117,-0.8133,-0.8145,-0.8159,-0.8179,-0.8195,-0.8207,-0.8224,-0.8233,-0.8234,-0.8237,-0.8237,-0.8239,-0.8219,-0.8214,-0.8236,-0.8236,-0.8236,-0.8236,-0.8236,-0.8236,-0.8054,-0.8074,-0.8079,-0.8104,-0.8112,-0.813,-0.8138,-0.8149,-0.8159,-0.8181,-0.8195,-0.8202,-0.8214,-0.8232,-0.8247,-0.825,-0.8256,-0.8259,-0.8262,-0.8243,-0.8241,-0.8238,-0.8234,-0.826,-0.826,-0.8282,-0.8282,-0.8282]}]]